Regional Weather Roundup
Issued by NWS

Home | Current Version | Previous Version | Graphics & Text | Print | Product List | Glossary On
Versions: 1 2 3 4 5 6 7 8 9 10 11 12 13 14 15 16 17 18 19 20 21 22 23 24 25 26 27 28 29 30 31 32 33 34 35 36 37 38 39 40 41 42 43 44 45 46 47 48 49 50
000
ASUS43 KIND 271259
RWRIN

WEATHER ROUNDUP FOR INDIANA
NATIONAL WEATHER SERVICE INDIANAPOLIS IN
800 AM EST FRI FEB 27 2015

NOTE: "FAIR" INDICATES FEW OR NO CLOUDS BELOW 12,000 FEET WITH NO
SIGNIFICANT WEATHER AND/OR OBSTRUCTIONS TO VISIBILITY.

* - STATION DOES NOT REPORT WEATHER SUCH AS PRECIPITATION OR FOG.

+ - STATION NOT QUALITY CONTROLLED BY THE NATIONAL WEATHER SERVICE.
    USE DATA WITH CAUTION...ESPECIALLY DEWPOINT AND RELATIVE
    HUMIDITY OBSERVATIONS.

INZ001>003-010>013-019-020-271400-
NORTHWEST INDIANA

CITY           SKY/WX    TMP DP  RH WIND       PRES   REMARKS
MONTICELLO +   CLEAR     -7 -10  84 W5        30.52R WCI -18
VALPARAISO     NOT AVBL

$$

LMZ046-743>745-271400-
SOUTHERN LAKE MICHIGAN

STATION/POSITION TIME  TEMP WIND        PRES
                       AIR  DIR/SP/G
                 (UTC) (F)  (DEG/KT/KT) (MB)
MICHIGAN CITY    1200    4  130/  2/  4   N/A

$$

INZ004-005-014>016-021>024-271400-
NORTH CENTRAL INDIANA

CITY           SKY/WX    TMP DP  RH WIND       PRES   REMARKS
ELKHART        PTCLDY    -8 -15  71 CALM      30.50R HAZE
GOSHEN         CLEAR     -8 -13  78 CALM      30.49R
SOUTH BEND     MOCLDY    -6 -12  75 CALM      30.51R

$$

INZ006>009-017-018-025>027-271400-
NORTHEAST INDIANA

CITY           SKY/WX    TMP DP  RH WIND       PRES   REMARKS
ANGOLA *+      CLEAR    -15 -20  76 CALM      30.46R
FORT WAYNE     PTCLDY    -2  -6  83 W3        30.50R

$$

INZ028-029-035-036-043>045-051>053-271400-
WEST CENTRAL INDIANA

CITY           SKY/WX    TMP DP  RH WIND       PRES   REMARKS
CRAWFORDSVL +  PTCLDY    -3 -11  69 W6        30.53R WCI -15
GREENCASTLE +  MOCLDY     5  -4  66 CALM      30.53R
LAFAYETTE      CLEAR     -4  -8  83 SW3       30.55R
TERRE HAUTE    CLOUDY     7  -2  66 NW9       30.57R WCI  -7

$$

INZ030>032-037>040-046>048-054>057-064-065-271400-
CENTRAL INDIANA

CITY           SKY/WX    TMP DP  RH WIND       PRES   REMARKS
GREENWOOD *+   MOCLDY     3  -2  78 W3        30.52R
INDIANAPOLIS   PTCLDY     3  -3  76 NW3       30.51R
-EAGLE CREEK   MOCLDY     3  -2  79 NW6       30.51R WCI  -8
KOKOMO *+      CLEAR      0  -6  78 W7        30.51R WCI -13
MT COMFORT *+  PTCLDY    -2 -11  65 CALM      30.51R
SHELBYVILLE    PTCLDY    -3  -8  79 CALM      30.51R HAZE

$$

INZ033-034-041-042-049-050-058-059-271400-
EAST CENTRAL INDIANA

CITY           SKY/WX    TMP DP  RH WIND       PRES   REMARKS
MUNCIE         MOCLDY     1  -3  83 SW3       30.50R FOG

$$

INZ060-061-067>069-081>083-085>088-271400-
SOUTHWEST INDIANA

CITY           SKY/WX    TMP DP  RH WIND       PRES   REMARKS
EVANSVILLE     CLEAR     13   3  64 N6        30.60R WCI   4
HUNTINGBURG *+ CLEAR      7   1  78 N6        30.58R WCI  -3

$$

INZ062-063-066-070>080-084-089>092-271400-
SOUTH CENTRAL AND SOUTHEAST INDIANA

CITY           SKY/WX    TMP DP  RH WIND       PRES   REMARKS
BLOOMINGTON    CLEAR     -4  -8  83 W3        30.53R
SEYMOUR +      HAZE      -2  -8  78 CALM      30.55R VSB 1/2

$$




USA.gov is the U.S. government's official web portal to all federal, state and local government web resources and services.